Probability
4 5 6 5 2 0 0 1 1 1 0 1 1 0 0 0 0 0 1 0 0 0 0 0 0 0 0 0 0 0 0 0 0 0 0 0 0 0 0 0 0 0 0
4 5 5 5 3 1 1 1 1 0 0 1 2 1 1 1 0 1 1 1 0 0 0 0 0 0 0 0 0 0 0 0 0 0 0 0 0 0 0 0 0 0 0
3 4 5 6 4 3 2 2 1 1 1 2 3 3 2 2 1 2 2 1 0 0 0 0 0 0 0 0 0 0 0 0 0 0 0 0 0 0 0 0 0 0 0
2 3 5 6 5 4 3 3 2 2 2 3 3 3 4 3 3 3 2 0 0 0 0 0 0 0 0 0 0 0 0 0 0 0 0 0 0 0 0 0 0 0 0
2 4 5 6 5 4 4 4 3 3 3 3 3 4 5 5 4 4 3 1 1 1 0 0 0 0 0 0 0 0 0 0 0 0 0 0 0 0 0 0 0 0 0
4 4 4 4 4 4 6 5 3 3 2 2 4 5 6 5 3 3 3 3 2 2 1 1 0 0 0 0 0 0 0 0 0 0 0 0 0 0 0 0 0 0 0
4 3 3 3 3 4 6 6 5 4 3 2 3 5 5 4 2 2 3 3 3 2 1 1 1 1 0 0 0 0 0 0 0 0 0 0 0 0 0 0 0 0 0
3 3 3 4 4 5 6 6 6 5 4 3 3 2 3 3 1 1 2 3 3 3 2 2 2 1 0 0 0 0 0 0 0 0 0 0 0 0 0 0 0 0 0
3 3 3 4 5 6 6 6 6 6 4 3 3 1 1 1 1 1 2 2 3 3 2 3 2 1 0 0 0 0 0 0 0 0 0 0 0 0 0 0 0 0 0
3 3 3 5 7 7 7 6 6 6 5 4 3 2 1 0 1 2 1 1 2 2 2 2 1 0 0 0 0 0 0 0 0 0 0 0 0 0 0 0 0 0 0
3 3 4 6 8 8 7 6 6 6 6 4 3 2 1 0 1 2 1 0 1 1 0 0 0 0 0 0 0 0 0 0 0 0 0 0 0 0 0 0 0 0 0
3 3 4 7 9 8 7 6 6 7 6 5 4 3 1 1 2 3 2 1 0 0 0 0 0 0 0 0 0 0 0 0 0 0 0 0 0 0 0 0 0 0 0
3 3 4 7 8 7 6 6 6 7 7 6 5 4 3 3 3 3 3 1 0 0 0 0 0 0 0 0 0 0 0 0 0 0 0 0 0 0 0 0 0 0 0
1 2 4 6 7 7 6 6 6 7 8 7 7 6 4 3 3 3 3 2 1 0 0 0 0 0 0 0 0 0 0 0 0 0 0 0 0 0 0 0 0 0 0
0 2 4 5 5 6 6 6 6 7 7 8 8 7 6 5 5 5 4 3 1 0 0 0 0 0 0 0 0 0 0 0 0 0 0 0 0 0 0 0 0 0 0
0 1 3 4 4 5 6 7 7 7 8 8 8 8 8 7 8 7 6 5 2 1 0 0 0 0 0 0 0 0 0 0 0 0 0 0 0 0 0 0 0 0 0
0 1 2 3 3 4 5 7 8 8 8 9 9 9 9 9 9 8 7 6 5 3 1 1 0 0 0 0 0 0 0 0 0 0 0 0 0 0 0 0 0 0 0
0 0 1 2 3 3 4 5 6 7 8 9 9 8 8 8 8 7 6 5 5 5 4 2 1 1 1 0 0 0 0 0 0 0 0 0 0 0 0 0 0 1 1
0 0 0 1 2 3 3 3 4 6 7 9 9 8 8 8 8 7 7 6 6 6 5 3 3 2 2 1 0 0 0 0 0 0 0 0 0 0 0 0 0 1 2
0 0 0 0 1 3 3 2 3 5 7 9 9 9 9 9 8 8 8 7 7 7 6 4 3 3 2 1 0 0 0 0 0 0 0 0 0 0 0 0 0 1 1
0 0 0 0 1 3 3 3 3 5 7 9 9 9 8 7 6 6 7 7 8 8 7 5 4 4 2 1 0 0 0 0 0 0 0 0 0 0 0 0 0 0 0
0 0 0 0 1 2 4 5 4 5 7 8 8 7 6 5 4 4 5 5 6 7 7 6 5 4 2 1 0 0 0 0 0 0 0 0 0 0 0 0 0 0 0
0 0 0 0 1 1 3 5 6 6 6 7 7 6 4 4 4 5 4 4 4 5 6 6 5 4 3 2 1 0 0 0 0 0 0 0 0 0 0 0 0 0 0
0 0 0 0 0 0 1 3 5 6 6 6 6 5 4 4 5 5 4 3 3 3 4 4 4 3 3 3 2 1 1 0 0 0 0 0 0 0 0 0 0 0 0
0 0 0 0 0 0 0 1 3 5 4 4 4 4 4 5 5 4 3 2 2 2 2 2 2 2 2 2 2 2 1 0 0 0 0 0 0 0 0 0 0 0 0
0 0 0 0 0 0 0 0 2 3 4 3 3 4 5 6 4 2 1 1 1 1 1 1 1 1 1 1 1 1 1 0 0 0 0 0 0 0 0 0 0 0 0
Wind_Speed
7 6 5 5 4 4 4 5 4 3 2 2 1 1 1 1 1 1 2 2 1 2 3 2 2 2 2 1 1 1 2 1 1 1 1 1 1 2 2 2 2 3 3
8 7 5 4 4 4 3 4 3 3 3 2 2 1 1 1 1 1 1 1 1 2 2 2 2 1 1 1 1 1 1 1 0 0 0 0 2 2 1 1 1 2 2
7 8 7 6 4 3 4 4 4 3 3 3 2 1 1 1 1 1 1 1 1 1 2 2 2 1 1 1 1 1 1 0 1 1 0 1 1 1 1 0 1 2 2
6 7 6 5 5 3 3 4 3 3 3 3 2 2 2 1 2 2 2 2 1 1 1 1 2 2 2 2 1 1 1 1 1 2 1 0 1 2 0 1 1 1 2
7 7 7 6 5 4 3 3 3 3 3 3 3 2 1 1 1 2 2 2 2 2 2 2 2 1 1 2 2 1 1 1 1 1 1 1 1 0 2 1 1 0 0
7 7 7 6 5 5 4 2 3 3 2 2 3 2 1 1 1 1 1 1 1 1 1 1 1 1 1 1 1 1 2 1 1 1 1 1 0 1 1 1 2 1 1
8 7 7 6 6 5 5 4 3 3 3 3 2 2 2 1 2 1 1 1 1 1 2 1 1 1 2 2 1 1 2 2 2 2 1 1 1 1 1 1 1 1 1
7 7 7 6 6 6 5 5 4 3 3 3 2 2 2 1 1 1 1 1 1 2 2 2 2 1 1 2 2 1 2 2 2 2 2 1 1 0 0 1 1 0 1
6 6 6 7 6 6 6 5 5 4 3 3 2 2 3 2 1 1 1 1 1 2 3 3 2 1 1 1 2 2 2 2 1 2 2 1 1 1 0 1 2 2 1
6 6 6 6 6 5 5 5 5 5 4 3 2 2 2 2 2 1 1 1 1 1 2 2 2 2 2 1 1 2 2 2 1 1 1 1 1 1 1 1 1 1 2
5 6 6 6 6 5 5 5 5 4 3 3 3 2 2 2 2 1 1 1 0 0 1 2 1 2 2 2 2 2 3 2 2 2 2 2 2 1 1 1 1 1 1
3 4 6 6 5 5 5 5 5 4 4 3 3 2 2 2 2 2 2 2 1 1 1 1 1 2 2 2 2 1 2 2 2 2 2 2 1 1 0 0 1 1 1
2 2 4 5 6 5 5 5 5 5 4 4 4 3 3 3 3 2 2 1 1 1 0 0 1 1 2 2 2 2 2 3 3 2 2 2 2 2 1 1 1 1 0
2 2 2 3 4 5 4 4 5 5 4 4 4 4 3 3 2 2 1 1 1 1 1 1 1 1 1 1 1 2 2 3 2 2 2 2 3 3 2 2 2 1 1
2 2 1 1 2 3 4 4 4 4 4 4 4 4 3 3 2 2 2 1 1 1 1 1 1 1 0 0 1 2 2 2 2 2 1 1 2 2 2 2 2 2 1
1 1 1 1 1 2 3 3 3 3 4 4 4 3 3 2 2 2 2 2 2 1 1 1 1 1 0 0 1 2 2 2 2 2 2 2 2 2 3 3 3 3 3
1 1 0 0 0 1 2 3 2 2 3 3 3 3 3 2 2 2 2 2 2 2 1 1 1 2 1 1 2 3 2 3 2 2 2 2 2 3 2 3 3 3 4
2 1 1 1 1 1 0 1 2 2 2 2 2 2 2 3 2 2 2 2 2 2 2 2 2 2 2 2 3 4 3 3 3 2 2 2 1 1 2 2 3 4 4
2 1 1 1 1 1 1 1 1 2 2 2 2 2 2 3 3 3 3 3 2 2 2 2 3 2 2 3 3 2 2 3 3 3 2 2 2 1 1 2 3 4 4
2 2 2 1 1 1 1 0 1 1 1 1 1 2 2 2 3 3 3 2 2 3 2 2 2 3 2 2 3 3 2 3 3 3 2 2 2 2 2 2 2 4 4
3 2 2 2 2 2 1 1 1 1 1 1 1 1 2 2 2 2 2 2 2 2 2 3 3 2 3 3 3 4 2 3 3 2 2 2 3 3 3 3 3 4 3
2 2 2 2 2 2 2 2 2 2 1 0 0 1 2 2 2 2 2 2 2 2 3 2 2 1 1 2 3 4 4 3 2 3 2 2 3 4 4 4 4 5 3
3 3 2 2 3 3 2 3 2 1 0 1 1 2 2 2 1 2 2 2 2 2 2 2 2 1 1 1 1 3 4 4 3 3 4 5 5 4 4 5 5 4 2
2 2 2 2 2 2 2 2 2 1 1 1 1 1 1 1 1 1 1 1 1 2 1 2 2 1 1 0 0 1 2 3 4 4 5 6 6 5 5 4 3 3 3
2 2 1 1 2 2 2 2 2 1 1 1 1 1 1 1 1 1 2 2 1 2 2 2 2 2 2 2 1 1 1 2 3 3 2 2 1 2 2 2 2 2 2
3 2 2 2 2 2 2 2 2 1 2 2 2 1 1 1 1 0 1 3 2 2 2 3 3 2 3 3 3 3 4 4 4 2 2 2 2 2 2 2 2 2 2
Wind_Direction
164 158 159 157 155 154 145 133 135 148 138 119 115 119 114 101 83 95 96 81 74 92 96 81 76 76 77 67 66 60 47 56 85 69 41 10 56 75 81 64 59 60 76
161 159 164 158 168 154 148 142 150 152 143 135 143 141 122 128 119 101 110 115 93 94 114 122 111 106 105 76 63 71 40 331 358 113 141 45 8 359 82 94 95 84 74
169 163 165 165 167 162 160 160 162 152 148 147 143 122 107 105 134 154 130 126 123 110 111 126 132 146 157 172 166 160 127 281 312 0 111 125 170 293 336 104 105 96 82
167 161 161 163 162 167 161 159 155 151 151 148 144 148 156 181 185 156 152 162 152 133 141 148 162 180 176 176 203 165 170 169 271 318 338 132 144 139 321 332 18 102 107
169 164 164 167 161 156 153 158 149 138 136 138 146 161 165 172 140 131 153 169 164 164 179 182 202 196 184 185 185 171 192 186 187 226 295 323 348 121 145 215 245 344 138
166 163 160 161 159 152 152 153 149 139 135 134 130 149 158 130 125 136 157 169 153 179 201 189 204 205 197 201 194 189 196 202 191 234 227 204 180 231 179 190 198 195 214
169 166 163 164 159 153 154 163 155 150 149 151 157 165 159 168 181 182 185 180 172 194 217 199 221 207 194 199 185 213 209 206 203 219 235 241 240 196 179 157 193 198 207
171 166 163 164 160 162 165 169 165 163 154 160 175 172 158 167 173 191 182 195 192 193 197 206 224 197 186 207 182 219 226 223 217 216 214 227 251 247 194 163 152 184 266
165 162 166 165 164 168 167 170 167 167 169 177 187 171 172 168 175 174 207 213 208 199 190 190 196 179 176 214 192 218 226 231 230 214 218 213 233 236 267 225 169 163 198
162 166 171 164 164 166 166 170 175 179 175 176 187 177 176 164 165 175 216 256 246 192 177 188 187 175 184 201 191 226 241 228 229 217 224 221 228 227 234 277 276 184 170
167 162 156 160 161 159 165 174 178 177 177 184 186 183 173 169 167 170 190 210 233 185 194 200 197 193 199 190 182 227 224 226 223 226 224 228 212 176 220 238 296 261 164
141 152 152 154 159 164 169 175 179 179 178 182 183 185 170 172 187 195 203 205 206 200 223 208 211 221 211 197 176 216 236 230 232 225 214 217 200 180 175 179 275 286 203
96 124 143 159 166 169 173 176 184 181 177 181 187 193 186 189 200 206 207 198 192 201 221 219 231 236 224 216 196 201 227 230 234 223 212 203 179 191 187 178 221 241 212
93 100 119 152 163 168 174 178 186 182 178 179 188 195 193 190 190 188 194 179 165 168 195 231 245 248 232 253 255 236 231 230 231 234 229 217 184 191 190 193 206 195 167
80 87 100 125 157 165 175 181 184 185 181 179 191 196 192 187 174 171 181 163 147 186 217 217 257 285 222 318 317 289 274 250 237 225 224 228 180 176 176 185 190 177 167
84 96 104 101 143 184 185 188 186 188 184 184 186 184 184 179 173 177 190 179 179 204 230 227 220 237 254 313 316 313 291 278 253 230 225 215 201 196 195 193 181 177 185
69 77 117 83 296 262 200 183 185 190 190 180 174 169 176 180 190 193 190 189 196 195 215 239 224 209 211 231 265 281 285 272 267 244 230 248 220 191 194 205 208 220 226
33 22 11 16 321 311 1 154 160 173 186 173 168 170 181 184 190 196 203 212 212 202 208 222 226 208 209 227 255 259 257 269 274 265 232 218 214 200 192 201 212 221 223
31 10 7 346 319 326 353 47 162 158 185 178 176 183 191 190 194 205 215 216 208 212 221 215 222 217 218 223 243 236 244 255 265 274 271 236 206 247 220 221 230 235 243
38 14 360 357 347 345 357 253 246 188 195 192 204 202 200 198 202 214 219 216 209 217 222 226 231 217 210 215 225 218 232 250 259 266 270 273 246 248 216 213 242 242 242
41 24 10 18 4 352 345 301 276 257 221 200 204 201 206 209 208 213 214 213 213 220 226 226 229 214 210 217 221 209 214 244 252 253 254 257 257 245 230 221 230 247 253
39 40 30 19 13 6 339 306 295 308 339 61 231 230 225 233 222 193 213 226 223 227 234 232 237 236 221 205 214 208 224 259 260 259 251 259 263 250 239 234 251 266 269
40 43 42 21 12 11 352 323 323 328 311 246 247 251 258 248 230 212 206 210 220 227 239 240 235 247 251 261 231 234 248 266 262 269 278 284 285 267 242 244 248 247 235
28 32 35 19 0 347 337 311 314 313 279 264 263 262 261 305 302 288 251 231 240 237 237 246 249 249 261 290 340 283 267 274 279 282 284 283 273 257 251 250 239 228 224
15 20 21 7 340 336 332 340 340 329 304 280 274 276 277 266 298 322 316 279 264 232 226 235 239 237 239 239 261 258 255 255 261 286 281 275 273 261 262 246 232 222 226
2 3 5 353 336 335 335 345 354 340 300 286 281 272 249 247 245 242 329 336 293 280 242 236 240 254 240 243 253 269 276 276 276 268 256 253 253 242 248 251 249 242 237